Weather in Kolkhozny

Russia / Ulyanovsk Oblast     54°19′14″N   48°34′07″E
temp.,
°C
wind,
m/s
gust,
m/s
humid.,
%
clouds,
%
prec.,
mm/h
press.,
hPa
HPBL,
m
21 april, wed
wed2101:00+4se81454100 0.0 1024342
04:00+4se91655100 0.0 1023419
07:00+3sse91658100 0.1 1023513
10:00+3se101866100 0.7 1022601
13:00+3sse101970100 0.4 1022619
16:00+2sse101680100 0.8 1022579
19:00+2sse91692100 1.6 1021505
22:00+3sse81492100 1.9 1021400
22 april, thu
thu2201:00+3s61293100 0.2 1022282
04:00+3sse4797100 0.3 1023144
07:00+3sse469892 0.1 1024137
10:00+4sse569378 0.1 1024176
13:00+6sse578781 0.0 1024215
16:00+7sse677969 0.0 1024286
19:00+6sse598414 0.0 1024156
22:00+4sse578962 0.0 1025134
23 april, fri
fri2301:00+3se469479 0.1 102597
04:00+3se3495100 0.3 102565
07:00+2se359651 0.0 102679
10:00+4sse5689100 0.0 1026152
13:00+5se458130 0.0 1025256
16:00+6se347763 0.0 1023384
19:00+6se3481100 0.0 1023118
22:00+5ese2491100 0.0 102255
24 april, sat
sat2401:00+4ene2294100 0.0 102032
04:00+3nne2297100 0.0 101831
07:00+3ne1297100 0.0 101756
10:00+4se3490100 0.0 1015275
13:00+5ese338688 0.1 1014243
16:00+6ese2380100 0.1 1013292
19:00+5se5688100 0.0 1012140
22:00+5se588999 0.0 1011147
25 april, sun
sun2501:00+6s51094100 0.5 1009208
04:00+5w6108137 1.3 1010308
07:00+4wsw48844 0.0 1012261
10:00+5wsw46675 0.0 1013498
13:00+6sw4563100 0.0 1013638
16:00+4wnw2389100 3.1 1013243
19:00+3sse22898 2.1 1013115
22:00+3ssw34915 2.1 101569